Location: Newark
(50.4348°N, 30.5552°E)
Time: 03:29:29
(UTC+00:00)

Altair - Pass Details

Date: 21 January 2020
Orbit: 1502 x 1682 km, 47.2° (Epoch: 17 February)

Event Time Altitude Azimuth Distance (km) Brightness Sun altitude
Rises 13:41:19 0° 288° (WNW) 4,934 10.6 5.6°
Reaches altitude 10° 13:44:45 10° 281° (W) 3,933 10.3 5.1°
Maximum altitude 13:53:49 40° 217° (SW) 2,264 9.4 4.0°
Drops below altitude 10° 14:02:37 10° 152° (SSE) 3,814 9.7 2.9°
Sets 14:05:54 0° 145° (SE) 4,771 10.1 2.5°
